Minchumina, AK

5:16 AM AKDT on April 25, 2017 (GMT -0800)
Minchumina

Weather History for PAMH - January, 2013

Change the Weather History Date:

Saturday, January 19, 2013

  Actual Average Record
Temperature  
Mean Temperature 2 °F -  
Max Temperature 6 °F 2 °F 33 °F (2000)
Min Temperature -2 °F -6 °F -50 °F (2017)
Degree Days  
Heating Degree Days 63    
Moisture  
Dew Point -5 °F    
Average Humidity 66    
Maximum Humidity 72    
Minimum Humidity 61    
Precipitation  
Precipitation 0.00 in - - ()
Sea Level Pressure  
Sea Level Pressure 30.13 in    
Wind  
Wind Speed 9 mph (NE)    
Max Wind Speed 23 mph    
Max Gust Speed 83 mph    
Visibility 10 miles    
Events      
Averages and records for this station are not official NWS values.
T = Trace of Precipitation, MM = Missing Value Source: NWS Daily Summary

Daily Weather History Graph

Daily Weather History Graph

Search for Another Location

Airport or City:

Trip Planner

Search our weather history database for the weather conditions in past years. The results will help you decide how hot, cold, wet, or windy it might be!

Date:

Astronomy

Jan. 19, 2013 Rise Set
Actual Time 10:22 AM AKST 4:18 PM AKST
Civil Twilight 9:19 AM AKST 5:21 PM AKST
Nautical Twilight 8:17 AM AKST 6:23 PM AKST
Astronomical Twilight 7:20 AM AKST 7:20 PM AKST
Moon 11:17 AM AKST (1/19) 3:34 AM AKST (1/19)
Length of Visible Light 8h 02m
Length of Day
5h 56m
First Quarter, 58% of the Moon is Illuminated
Jan 19
First Quarter
Jan 26
Full
Feb 3
Last Quarter
Feb 9
New
Feb 17
First Quarter

Hourly Weather History & Observations

Time (AKST) Temp. Windchill Dew Point Humidity Pressure Visibility Wind Dir Wind Speed Gust Speed Precip Events Conditions
12:16 AM -2.2 °F -19.9 °F - N/A% 30.23 in 10.0 mi NE 11.5 mph 51.8 mph N/A   Clear
12:36 AM -2.2 °F - -9.4 °F 71% 30.25 in 10.0 mi Calm Calm - N/A   Clear
12:56 AM -2.2 °F -26.2 °F -11.2 °F 66% 30.24 in 10.0 mi NE 23.0 mph 71.3 mph N/A   Clear
1:16 AM -2.2 °F -22.9 °F -9.4 °F 71% 30.23 in 10.0 mi NE 16.1 mph 82.9 mph N/A   Clear
1:36 AM -0.4 °F -19.2 °F -9.4 °F 66% 30.24 in 10.0 mi NE 13.8 mph 52.9 mph N/A   Scattered Clouds
1:56 AM -0.4 °F -21.7 °F -9.4 °F 66% 30.23 in 10.0 mi ENE 18.4 mph 42.6 mph N/A   Overcast
2:16 AM -0.4 °F -20.5 °F -9.4 °F 66% 30.22 in 10.0 mi NE 16.1 mph 61.0 mph N/A   Mostly Cloudy
2:36 AM -0.4 °F -22.8 °F -9.4 °F 66% 30.23 in 10.0 mi NE 20.7 mph 65.6 mph N/A   Partly Cloudy
3:16 AM -0.4 °F -16.7 °F -7.6 °F 72% 30.22 in 10.0 mi NE 10.4 mph 33.4 mph N/A   Partly Cloudy
3:36 AM 1.4 °F -16.9 °F -7.6 °F 66% 30.22 in 10.0 mi NE 13.8 mph 47.2 mph N/A   Mostly Cloudy
3:56 AM 1.4 °F -12.5 °F -7.6 °F 66% 30.21 in 10.0 mi ENE 8.1 mph 34.5 mph N/A   Scattered Clouds
4:16 AM 1.4 °F - -7.6 °F 66% 30.21 in 10.0 mi Calm Calm - N/A   Partly Cloudy
4:36 AM 1.4 °F -14.5 °F -7.6 °F 66% 30.21 in 10.0 mi ENE 10.4 mph 43.7 mph N/A   Scattered Clouds
4:56 AM 1.4 °F -15.3 °F -7.6 °F 66% 30.21 in 10.0 mi ENE 11.5 mph 32.2 mph N/A   Mostly Cloudy
5:16 AM 1.4 °F -11.3 °F -5.8 °F 72% 30.21 in 10.0 mi NE 6.9 mph 19.6 mph N/A   Overcast
5:36 AM 3.2 °F -6.2 °F -5.8 °F 66% 30.21 in 10.0 mi ENE 4.6 mph - N/A   Overcast
5:56 AM 3.2 °F -4.2 °F -5.8 °F 66% 30.20 in 10.0 mi NE 3.5 mph 23.0 mph N/A   Overcast
6:16 AM 3.2 °F -10.3 °F -5.8 °F 66% 30.20 in 10.0 mi NE 8.1 mph 24.2 mph N/A   Overcast
6:36 AM 3.2 °F -12.2 °F -5.8 °F 66% 30.20 in 10.0 mi NE 10.4 mph 27.6 mph N/A   Overcast
6:56 AM 3.2 °F -9.1 °F -5.8 °F 66% 30.20 in 10.0 mi ENE 6.9 mph - N/A   Overcast
7:16 AM 3.2 °F -9.1 °F -5.8 °F 66% 30.19 in 10.0 mi NE 6.9 mph - N/A   Overcast
7:36 AM 3.2 °F -6.2 °F -5.8 °F 66% 30.19 in 10.0 mi NE 4.6 mph - N/A   Overcast
7:56 AM 3.2 °F -6.2 °F -5.8 °F 66% 30.19 in 10.0 mi NE 4.6 mph 21.9 mph N/A   Mostly Cloudy
8:16 AM 3.2 °F - -5.8 °F 66% 30.19 in 10.0 mi Calm Calm - N/A   Mostly Cloudy
8:36 AM 5.0 °F -5.6 °F -5.8 °F 61% 30.18 in 10.0 mi NE 5.8 mph - N/A   Overcast
8:56 AM 5.0 °F -13.0 °F -5.8 °F 61% 30.18 in 10.0 mi NE 15.0 mph 35.7 mph N/A   Overcast
9:16 AM 5.0 °F -8.1 °F -5.8 °F 61% 30.18 in 10.0 mi NE 8.1 mph 39.1 mph N/A   Overcast
9:36 AM 5.0 °F -5.6 °F -4.0 °F 66% 30.19 in 10.0 mi NE 5.8 mph - N/A   Overcast
9:56 AM 6.8 °F -0.1 °F -4.0 °F 61% 30.19 in 10.0 mi ENE 3.5 mph 38.0 mph N/A   Overcast
10:16 AM 6.8 °F -3.5 °F -4.0 °F 61% 30.18 in 10.0 mi NE 5.8 mph 28.8 mph N/A   Overcast
10:36 AM 6.8 °F -5.9 °F -4.0 °F 61% 30.19 in 10.0 mi ENE 8.1 mph 24.2 mph N/A   Overcast
10:56 AM 6.8 °F -3.5 °F -4.0 °F 61% 30.19 in 10.0 mi NE 5.8 mph 23.0 mph N/A   Overcast
11:16 AM 6.8 °F -10.0 °F -4.0 °F 61% 30.18 in 10.0 mi NE 13.8 mph 35.7 mph N/A   Overcast
11:36 AM 6.8 °F -11.8 °F -4.0 °F 61% 30.17 in 10.0 mi NE 17.3 mph 40.3 mph N/A   Overcast
11:56 AM 6.8 °F -6.9 °F -2.2 °F 67% 30.17 in 10.0 mi NE 9.2 mph 51.8 mph N/A   Overcast
12:16 PM 6.8 °F -2.0 °F -2.2 °F 67% 30.17 in 10.0 mi NE 4.6 mph 39.1 mph N/A   Overcast
12:36 PM 6.8 °F -7.8 °F -2.2 °F 67% 30.17 in 10.0 mi NE 10.4 mph 17.3 mph N/A   Overcast
12:56 PM 6.8 °F -4.8 °F -2.2 °F 67% 30.16 in 10.0 mi NE 6.9 mph - N/A   Overcast
1:16 PM 6.8 °F -2.0 °F -2.2 °F 67% 30.15 in 10.0 mi NE 4.6 mph - N/A   Overcast
1:36 PM 6.8 °F - -2.2 °F 67% 30.15 in 10.0 mi Calm Calm - N/A   Overcast
1:56 PM 6.8 °F -3.5 °F -2.2 °F 67% 30.14 in 10.0 mi NE 5.8 mph - N/A   Overcast
2:16 PM 6.8 °F -3.5 °F -2.2 °F 67% 30.15 in 10.0 mi ENE 5.8 mph - N/A   Overcast
2:36 PM 6.8 °F -2.0 °F -4.0 °F 61% 30.14 in 10.0 mi ENE 4.6 mph 17.3 mph N/A   Overcast
2:56 PM 6.8 °F -3.5 °F -2.2 °F 67% 30.13 in 10.0 mi ENE 5.8 mph - N/A   Overcast
3:16 PM 6.8 °F -4.8 °F -2.2 °F 67% 30.12 in 10.0 mi NE 6.9 mph - N/A   Overcast
3:36 PM 6.8 °F -7.8 °F -4.0 °F 61% 30.11 in 10.0 mi ENE 10.4 mph 26.5 mph N/A   Overcast
3:56 PM 6.8 °F -5.9 °F -4.0 °F 61% 30.11 in 10.0 mi ENE 8.1 mph 21.9 mph N/A   Overcast
4:16 PM 6.8 °F -5.9 °F -4.0 °F 61% 30.10 in 10.0 mi NE 8.1 mph 25.3 mph N/A   Overcast
4:36 PM 6.8 °F -6.9 °F -2.2 °F 67% 30.09 in 10.0 mi NE 9.2 mph 19.6 mph N/A   Overcast
4:56 PM 6.8 °F -11.3 °F -4.0 °F 61% 30.08 in 10.0 mi NE 16.1 mph 43.7 mph N/A   Overcast
5:16 PM 6.8 °F -4.8 °F -2.2 °F 67% 30.07 in 10.0 mi NE 6.9 mph 46.0 mph N/A   Overcast
5:36 PM 6.8 °F -5.9 °F -4.0 °F 61% 30.08 in 10.0 mi ENE 8.1 mph - N/A   Overcast
5:56 PM 5.0 °F -5.6 °F -4.0 °F 66% 30.06 in 10.0 mi NE 5.8 mph - N/A   Overcast
6:16 PM 5.0 °F -5.6 °F -4.0 °F 66% 30.05 in 10.0 mi NE 5.8 mph - N/A   Mostly Cloudy
6:36 PM 5.0 °F -6.9 °F -4.0 °F 66% 30.04 in 10.0 mi NE 6.9 mph - N/A   Mostly Cloudy
6:56 PM 3.2 °F -7.8 °F -5.8 °F 66% 30.03 in 10.0 mi NE 5.8 mph - N/A   Scattered Clouds
7:16 PM 3.2 °F -9.1 °F -5.8 °F 66% 30.03 in 10.0 mi NE 6.9 mph - N/A   Clear
7:36 PM 3.2 °F -6.2 °F -5.8 °F 66% 30.01 in 10.0 mi NE 4.6 mph - N/A   Clear
7:56 PM 3.2 °F -9.1 °F -4.0 °F 72% 30.02 in 10.0 mi NE 6.9 mph - N/A   Clear
8:16 PM 3.2 °F -7.8 °F -5.8 °F 66% 30.02 in 10.0 mi NE 5.8 mph - N/A   Clear
8:36 PM 3.2 °F -10.3 °F -5.8 °F 66% 30.01 in 10.0 mi NE 8.1 mph 17.3 mph N/A   Clear
8:56 PM 3.2 °F -10.3 °F -5.8 °F 66% 29.98 in 10.0 mi NE 8.1 mph - N/A   Clear
9:16 PM 3.2 °F -6.2 °F -5.8 °F 66% 29.99 in 10.0 mi ENE 4.6 mph - N/A   Clear
9:36 PM 3.2 °F -9.1 °F -5.8 °F 66% 29.97 in 10.0 mi NE 6.9 mph - N/A   Clear
9:56 PM 3.2 °F -10.3 °F -5.8 °F 66% 29.96 in 10.0 mi NE 8.1 mph 18.4 mph N/A   Scattered Clouds
10:16 PM 3.2 °F -9.1 °F -5.8 °F 66% 29.95 in 10.0 mi NE 6.9 mph - N/A   Partly Cloudy
10:36 PM 3.2 °F -10.3 °F -5.8 °F 66% 29.95 in 10.0 mi NE 8.1 mph - N/A   Clear
10:56 PM 3.2 °F -10.3 °F -5.8 °F 66% 29.96 in 10.0 mi NE 8.1 mph - N/A   Partly Cloudy
11:16 PM 3.2 °F -9.1 °F -5.8 °F 66% 29.96 in 10.0 mi ENE 6.9 mph - N/A   Clear
11:36 PM 3.2 °F -9.1 °F -5.8 °F 66% 29.96 in 10.0 mi NE 6.9 mph - N/A   Clear
11:56 PM 3.2 °F -7.8 °F -5.8 °F 66% 29.96 in 10.0 mi NE 5.8 mph - N/A   Clear